Weather observations for the past three days for
Slayton Municipal Airport
| Date | Time (cdt) | Wind (kph) | Vis. (km) | Weather | Sky Cond. | Temperature (ºC) | Relative Humidity | Wind Chill (°C) | Heat Index (°C) | Pressure | Precipitation (cm) | ||||||
|---|---|---|---|---|---|---|---|---|---|---|---|---|---|---|---|---|---|
| Air | Dwpt | 6 hour | altimeter (cm) | sea level (mb) | 1 hr | 3 hr | 6 hr | ||||||||||
| Max. | Min. | ||||||||||||||||
| 10 | 00:53 | W 6 | 16.09 | Fair | CLR | 5.2 | -4.1 | 14.1 | 4.3 | 51% | 76.35 | 0.0 | |||||
| 10 | 00:33 | W 6 | 16.09 | Fair | CLR | 4.7 | -4.2 | 53% | 76.33 | 0.0 | |||||||
| 10 | 00:13 | W 7 | 16.09 | Fair | CLR | 4.7 | -4.7 | 51% | 3 | 76.33 | 0.0 | ||||||
| 09 | 23:53 | W 9 | 16.09 | Fair | CLR | 5.1 | -4.9 | 49% | 3 | 76.3 | 0.0 | ||||||
| 09 | 23:33 | W 9 | 16.09 | Fair | CLR | 5 | -5 | 49% | 3 | 76.3 | 0.0 | ||||||
| 09 | 23:13 | W 7 | 16.09 | Fair | CLR | 5.6 | -4.6 | 48% | 4 | 76.3 | 0.0 | ||||||
| 09 | 22:53 | W 9 | 16.09 | Fair | CLR | 5.7 | -4.8 | 47% | 4 | 76.3 | 0.0 | ||||||
| 09 | 22:33 | NW 9 | 16.09 | Fair | CLR | 6.5 | -4.7 | 45% | 5 | 76.3 | 0.0 | ||||||
| 09 | 22:13 | NW 9 | 16.09 | Fair | CLR | 6.6 | -4.6 | 45% | 5 | 76.28 | 0.0 | ||||||
| 09 | 21:53 | NW 11 | 16.09 | Fair | CLR | 7.8 | -4.2 | 43% | 6 | 76.25 | 0.0 | ||||||
| 09 | 21:33 | NW 9 | 16.09 | Fair | CLR | 7.2 | -4.4 | 44% | 6 | 76.23 | 0.0 | ||||||
| 09 | 21:13 | NW 11 | 16.09 | Fair | CLR | 8.5 | -4.4 | 40% | 7 | 76.2 | 0.0 | ||||||
| 09 | 20:53 | NW 11 | 16.09 | Fair | CLR | 9.4 | -4 | 39% | 8 | 76.17 | 0.0 | ||||||
| 09 | 20:33 | NW 13 | 16.09 | Fair | CLR | 11.9 | -4.4 | 32% | 76.15 | 0.0 | |||||||
| 09 | 20:13 | NW 15 | 16.09 | Fair | CLR | 12.3 | -4.4 | 31% | 76.12 | 0.0 | |||||||
| 09 | 19:53 | N 20 G 31 | 16.09 | Fair | CLR | 12.5 | -4.5 | 31% | 76.12 | 0.0 | |||||||
| 09 | 19:33 | N 20 | 16.09 | Fair | CLR | 13.2 | -4.6 | 29% | 76.1 | 0.0 | |||||||
| 09 | 19:13 | N 24 G 35 | 16.09 | Fair | CLR | 13.7 | -4.9 | 27% | 76.07 | 0.0 | |||||||
| 09 | 18:53 | N 19 G 31 | 16.09 | Fair | CLR | 13.8 | -4.5 | 15.4 | 13.7 | 28% | 76.07 | 0.0 | |||||
| 09 | 18:33 | N 22 G 33 | 16.09 | Fair | CLR | 14 | -4.6 | 27% | 76.05 | 0.0 | |||||||
| 09 | 18:13 | N 30 G 35 | 16.09 | Fair | CLR | 14.2 | -4.9 | 26% | 76.05 | 0.0 | |||||||
| 09 | 17:53 | NW 30 G 41 | 16.09 | Fair | CLR | 14.5 | -5.2 | 25% | 76.05 | 0.0 | |||||||
| 09 | 17:33 | N 30 | 16.09 | Fair | CLR | 14.6 | -4.6 | 26% | 76.02 | 0.0 | |||||||
| 09 | 17:13 | N 28 G 39 | 16.09 | Fair | CLR | 14.8 | -4.6 | 26% | 76 | 0.0 | |||||||
| 09 | 16:53 | NW 28 G 37 | 16.09 | Fair | CLR | 15.1 | -4.3 | 26% | 76 | 0.0 | |||||||
| 09 | 16:33 | N 33 G 43 | 16.09 | Fair and Breezy | CLR | 15 | -4.1 | 27% | 76 | 0.0 | |||||||
| 09 | 16:13 | N 33 G 43 | 16.09 | Fair and Breezy | CLR | 15.2 | -3.8 | 27% | 75.97 | 0.0 | |||||||
| 09 | 15:53 | N 26 G 41 | 16.09 | Fair | CLR | 15 | -3.5 | 28% | 75.97 | 0.0 | |||||||
| 09 | 15:33 | NW 30 G 43 | 16.09 | Fair | CLR | 14.7 | -3.2 | 29% | 75.97 | 0.0 | |||||||
| 09 | 15:13 | NW 35 G 44 | 16.09 | Fair and Breezy | CLR | 15.1 | -2.8 | 29% | 75.95 | 0.0 | |||||||
| 09 | 14:53 | NW 35 G 46 | 16.09 | Fair and Breezy | CLR | 14.7 | -3.2 | 29% | 75.92 | 0.0 | |||||||
| 09 | 14:33 | NW 30 G 44 | 16.09 | Fair | CLR | 14.9 | -2.1 | 31% | 75.92 | 0.0 | |||||||
| 09 | 14:13 | NW 24 G 44 | 16.09 | Fair | CLR | 14.8 | -2 | 32% | 75.92 | 0.0 | |||||||
| 09 | 13:53 | NW 26 G 44 | 16.09 | Fair | CLR | 14.6 | -1.5 | 33% | 75.92 | 0.0 | |||||||
| 09 | 13:33 | N 35 G 46 | 16.09 | Fair and Breezy | CLR | 14.3 | -1.9 | 33% | 75.9 | 0.0 | |||||||
| 09 | 13:13 | NW 33 G 50 | 16.09 | Fair and Breezy | CLR | 14.7 | -1.7 | 33% | 75.9 | 0.0 | |||||||
| 09 | 12:53 | NW 33 G 48 | 16.09 | Fair and Breezy | CLR | 14 | -2.1 | 14.2 | 9.7 | 33% | 75.87 | 0.0 | |||||
| 09 | 12:33 | N 30 G 48 | 16.09 | Fair | CLR | 14 | -0.7 | 37% | 75.87 | 0.0 | |||||||
| 09 | 12:13 | N 30 G 41 | 16.09 | Fair | CLR | 13.8 | -0.2 | 38% | 75.87 | 0.0 | |||||||
| 09 | 11:53 | N 28 G 37 | 16.09 | Fair | CLR | 13.7 | -0.1 | 39% | 75.84 | 0.0 | |||||||
| 09 | 11:33 | N 28 G 46 | 16.09 | Fair | CLR | 13.1 | -0.7 | 39% | 75.82 | 0.0 | |||||||
| 09 | 11:13 | N 31 G 43 | 16.09 | Fair | CLR | 12.7 | 0.1 | 42% | 75.82 | 0.0 | |||||||
| 09 | 10:53 | N 30 G 43 | 16.09 | Fair | CLR | 12.6 | 0.8 | 45% | 75.79 | 0.0 | |||||||
| 09 | 10:33 | N 30 G 39 | 16.09 | Fair | CLR | 12 | 1.1 | 48% | 75.79 | 0.0 | |||||||
| 09 | 10:13 | N 30 G 44 | 16.09 | Fair | CLR | 11.8 | 2.7 | 54% | 75.74 | 0.0 | |||||||
| 09 | 09:53 | N 33 G 44 | 16.09 | Partly Cloudy and Breezy | SCT026 SCT046 SCT070 | 11.4 | 2.7 | 55% | 75.72 | 0.0 | |||||||
| 09 | 09:33 | N 37 G 44 | 16.09 | Partly Cloudy and Breezy | SCT026 SCT046 | 11.4 | 4 | 61% | 75.72 | 0.0 | |||||||
| 09 | 09:13 | N 31 G 41 | 16.09 | Partly Cloudy | SCT016 | 10.6 | 4.1 | 64% | 75.69 | 0.0 | |||||||
| 09 | 08:53 | N 28 G 33 | 16.09 | Mostly Cloudy | BKN016 | 10.8 | 6 | 72% | 75.69 | 0.0 | |||||||
| 09 | 08:33 | N 30 G 44 | 16.09 | Mostly Cloudy | BKN016 | 10.2 | 5.9 | 75% | 75.67 | 0.0 | |||||||
| 09 | 08:13 | N 30 G 44 | 16.09 | Partly Cloudy | SCT018 SCT120 | 11 | 6.3 | 73% | 75.64 | 0.0 | |||||||
| 09 | 07:53 | N 28 G 48 | 16.09 | Partly Cloudy | SCT020 SCT120 | 11.3 | 6.5 | 73% | 75.62 | 0.0 | |||||||
| 09 | 07:33 | NW 26 G 31 | 16.09 | Partly Cloudy | SCT110 | 11 | 5.8 | 71% | 75.62 | 0.0 | |||||||
| 09 | 07:13 | W 19 | 16.09 | Partly Cloudy | SCT100 SCT120 | 10.4 | 5.6 | 72% | 75.57 | 0.0 | |||||||
| 09 | 06:53 | W 13 | 16.09 | Mostly Cloudy | BKN100 | 9.7 | 5.3 | 12.3 | 8.9 | 74% | 8 | 75.51 | 0.0 | ||||
| 09 | 06:33 | W 11 | 16.09 | Mostly Cloudy | SCT080 BKN100 | 9.5 | 5.2 | 75% | 8 | 75.51 | 0.0 | ||||||
| 09 | 06:13 | NW 7 | 16.09 | Mostly Cloudy | BKN090 BKN110 | 9.2 | 4.5 | 73% | 8 | 75.51 | 0.0 | ||||||
| 09 | 05:53 | NW 11 | 16.09 | Mostly Cloudy | BKN110 | 9 | 4.3 | 73% | 8 | 75.54 | 0.0 | ||||||
| 09 | 05:33 | NW 11 | 16.09 | Partly Cloudy | SCT110 | 9.5 | 4.1 | 69% | 8 | 75.54 | 0.0 | ||||||
| 09 | 05:13 | NW 17 | 16.09 | Fair | CLR | 9.9 | 4 | 67% | 8 | 75.51 | 0.0 | ||||||
| 09 | 04:53 | NW 19 G 30 | 16.09 | Fair | CLR | 10.2 | 3.1 | 62% | 75.51 | 0.0 | |||||||
| 09 | 04:33 | NW 22 | 16.09 | Partly Cloudy | SCT100 | 11.1 | 1 | 50% | 75.49 | 0.0 | |||||||
| 09 | 04:13 | NW 44 G 52 | 16.09 | Partly Cloudy and Windy | SCT100 | 10.6 | -1.5 | 43% | 75.44 | 0.0 | |||||||
| 09 | 03:53 | SW 20 | 16.09 | Fair | CLR | 10.9 | -2 | 41% | 75.31 | 0.0 | |||||||
| 09 | 03:33 | SW 24 | 16.09 | Fair | CLR | 11.4 | -1.8 | 40% | 75.29 | 0.0 | |||||||
| 09 | 03:13 | SW 22 | 16.09 | Fair | CLR | 11 | -1.7 | 41% | 75.29 | 0.0 | |||||||
| 09 | 02:53 | SW 24 | 16.09 | Fair | CLR | 10.5 | -1.6 | 43% | 75.26 | 0.0 | |||||||
| 09 | 02:33 | SW 19 | 16.09 | Fair | CLR | 9.5 | -1.6 | 46% | 7 | 75.29 | 0.0 | ||||||
| 09 | 02:13 | SW 20 | 16.09 | Fair | CLR | 10.6 | -1.2 | 44% | 75.31 | 0.0 | |||||||
| 09 | 01:53 | SW 17 | 16.09 | Fair | CLR | 10.7 | -1.3 | 44% | 75.34 | 0.0 | |||||||
| 09 | 01:33 | SW 20 | 11.27 | Fair | CLR | 10.7 | -1.2 | 44% | 75.36 | 0.0 | |||||||
| 09 | 01:13 | SW 17 | 16.09 | Fair | CLR | 10.9 | -1.5 | 42% | 75.39 | 0.0 | |||||||
| 09 | 00:53 | SW 19 | 16.09 | Fair | CLR | 10.9 | -1.2 | 20.5 | 8.8 | 43% | 75.41 | 0.0 | |||||
| 09 | 00:33 | SW 13 | 16.09 | Fair | CLR | 9.3 | -1.7 | 46% | 8 | 75.44 | 0.0 | ||||||
| 09 | 00:13 | SW 11 | 16.09 | Fair | CLR | 10.3 | -1.9 | 43% | 75.44 | 0.0 | |||||||
| 08 | 23:53 | W 9 | 16.09 | Fair | CLR | 11.7 | -1.5 | 40% | 75.44 | 0.0 | |||||||
| 08 | 23:33 | W 7 | 16.09 | Fair | CLR | 11.8 | -2 | 38% | 75.46 | 0.0 | |||||||
| 08 | 23:13 | W 7 | 16.09 | Fair | CLR | 11.1 | -2.2 | 40% | 75.49 | 0.0 | |||||||
| 08 | 22:53 | W 6 | 16.09 | Fair | CLR | 11.9 | -2.2 | 38% | 75.49 | 0.0 | |||||||
| 08 | 22:33 | W 9 | 16.09 | Fair | CLR | 11.8 | -2.4 | 37% | 75.51 | 0.0 | |||||||
| 08 | 22:13 | W 11 | 16.09 | Fair | CLR | 10.7 | -3 | 38% | 75.49 | 0.0 | |||||||
| 08 | 21:53 | NW 13 | 16.09 | Fair | CLR | 11.5 | -2.7 | 37% | 75.49 | 0.0 | |||||||
| 08 | 21:33 | NW 13 | 16.09 | Fair | CLR | 13.7 | -2.7 | 32% | 75.49 | 0.0 | |||||||
| 08 | 21:13 | NW 13 | 16.09 | Partly Cloudy | SCT110 | 14.8 | -3 | 29% | 75.46 | 0.0 | |||||||
| 08 | 20:53 | NW 17 | 16.09 | Fair | CLR | 16.7 | -3.3 | 25% | 75.44 | 0.0 | |||||||
| 08 | 20:33 | NW 22 | 16.09 | Fair | CLR | 17.6 | -3.4 | 24% | 75.41 | 0.0 | |||||||
| 08 | 20:13 | NW 24 G 39 | 16.09 | Fair | CLR | 18.5 | -3.7 | 22% | 75.41 | 0.0 | |||||||
| 08 | 19:53 | NW 26 G 39 | 16.09 | Fair | CLR | 19 | -3.5 | 22% | 75.39 | 0.0 | |||||||
| 08 | 19:33 | NW 35 G 48 | 16.09 | Fair and Breezy | CLR | 19.7 | -4.1 | 20% | 75.36 | 0.0 | |||||||
| 08 | 19:13 | NW 26 G 43 | 16.09 | Fair | CLR | 20.1 | -2.5 | 22% | 75.36 | 0.0 | |||||||
| 08 | 18:53 | NW 33 G 46 | 16.09 | Fair and Breezy | CLR | 20.8 | -1.1 | 24.3 | 20.7 | 23% | 75.34 | 0.0 | |||||
| 08 | 18:33 | NW 33 G 46 | 16.09 | Partly Cloudy and Breezy | SCT100 | 21.3 | -0.5 | 23% | 75.34 | 0.0 | |||||||
| 08 | 18:13 | NW 35 G 46 | 16.09 | Partly Cloudy and Breezy | SCT110 | 21.9 | -0.8 | 22% | 75.34 | 0.0 | |||||||
| 08 | 17:53 | NW 22 G 44 | 16.09 | Mostly Cloudy | BKN110 | 22.7 | -1 | 21% | 75.31 | 0.0 | |||||||
| 08 | 17:33 | W 30 G 44 | 16.09 | Mostly Cloudy | BKN100 | 22.6 | -2 | 19% | 75.31 | 0.0 | |||||||
| 08 | 17:13 | W 28 G 44 | 16.09 | Partly Cloudy | SCT100 | 23 | -1.1 | 20% | 75.31 | 0.0 | |||||||
| 08 | 16:53 | NW 31 G 41 | 16.09 | Partly Cloudy | SCT110 | 22.8 | -1.5 | 20% | 75.31 | 0.0 | |||||||
| 08 | 16:33 | NW 39 G 52 | 16.09 | Mostly Cloudy and Breezy | BKN110 | 22.9 | -1.1 | 20% | 75.31 | 0.0 | |||||||
| 08 | 16:13 | W 31 G 44 | 16.09 | Mostly Cloudy | BKN110 | 22.6 | -1.8 | 20% | 75.34 | 0.0 | |||||||
| 08 | 15:53 | NW 33 G 48 | 16.09 | Partly Cloudy and Breezy | SCT100 SCT120 | 22.4 | -1.5 | 20% | 75.31 | 0.0 | |||||||
| 08 | 15:33 | W 30 G 57 | 16.09 | Partly Cloudy | SCT110 | 24.1 | -2.2 | 17% | 24 | 75.34 | 0.0 | ||||||
| 08 | 15:13 | NW 35 G 46 | 16.09 | Partly Cloudy and Breezy | SCT110 | 23.5 | -2.3 | 18% | 75.34 | 0.0 | |||||||
| 08 | 14:53 | W 31 G 43 | 16.09 | Partly Cloudy | SCT110 | 23.4 | -3.1 | 17% | 75.36 | 0.0 | |||||||
| 08 | 14:33 | W 24 G 41 | 16.09 | Partly Cloudy | SCT120 | 23.4 | -2.9 | 17% | 75.36 | 0.0 | |||||||
| 08 | 14:13 | W 24 G 50 | 16.09 | Mostly Cloudy | BKN110 | 23.2 | -3.7 | 16% | 75.39 | 0.0 | |||||||
| 08 | 13:53 | W 24 G 39 | 16.09 | Mostly Cloudy | BKN110 | 23.1 | -3 | 17% | 75.41 | 0.0 | |||||||
| 08 | 13:33 | W 19 G 33 | 16.09 | Mostly Cloudy | BKN120 | 22 | -4 | 17% | 75.44 | 0.0 | |||||||
| 08 | 13:13 | W 33 G 39 | 16.09 | Mostly Cloudy and Breezy | BKN120 | 22.2 | -3.7 | 17% | 75.46 | 0.0 | |||||||
| 08 | 12:53 | W 22 G 39 | 16.09 | Fair | CLR | 21.9 | -3.4 | 22.1 | 9.6 | 18% | 75.49 | 0.0 | |||||
| 08 | 12:33 | W 22 G 35 | 16.09 | Fair | CLR | 21.2 | -3.7 | 19% | 75.49 | 0.0 | |||||||
| 08 | 12:13 | W 19 G 30 | 16.09 | Fair | CLR | 20.7 | -3.4 | 20% | 75.54 | 0.0 | |||||||
| 08 | 11:53 | W 17 G 39 | 16.09 | Fair | CLR | 20.3 | -3.9 | 19% | 75.57 | 0.0 | |||||||
| 08 | 11:33 | W 22 G 30 | 16.09 | Fair | CLR | 19.9 | -4.4 | 19% | 75.57 | 0.0 | |||||||
| 08 | 11:13 | W 15 G 39 | 16.09 | Fair | CLR | 19.5 | -4.1 | 20% | 75.59 | 0.0 | |||||||
| 08 | 10:53 | W 26 G 35 | 16.09 | Fair | CLR | 19 | -4.6 | 20% | 75.62 | 0.0 | |||||||
| 08 | 10:33 | W 24 G 35 | 16.09 | Fair | CLR | 18.2 | -4.3 | 21% | 75.62 | 0.0 | |||||||
| 08 | 10:13 | W 20 G 30 | 16.09 | Fair | CLR | 17.8 | -4.5 | 22% | 75.64 | 0.0 | |||||||
| 08 | 09:53 | W 26 G 33 | 16.09 | Fair | CLR | 16.9 | -5.2 | 22% | 75.64 | 0.0 | |||||||
| 08 | 09:33 | W 26 G 31 | 16.09 | Partly Cloudy | SCT110 | 16.1 | -4.6 | 24% | 75.67 | 0.0 | |||||||
| 08 | 09:13 | W 26 | 16.09 | Mostly Cloudy | SCT090 BKN110 | 15.6 | -5.5 | 23% | 75.67 | 0.0 | |||||||
| 08 | 08:53 | SW 22 | 16.09 | Mostly Cloudy | BKN090 | 14.2 | -5.1 | 26% | 75.67 | 0.0 | |||||||
| 08 | 08:33 | SW 24 | 16.09 | Partly Cloudy | SCT090 | 14 | -4.7 | 27% | 75.69 | 0.0 | |||||||
| 08 | 08:13 | SW 24 | 16.09 | Partly Cloudy | SCT120 | 13.2 | -4.1 | 30% | 75.69 | 0.0 | |||||||
| 08 | 07:53 | SW 19 | 16.09 | Partly Cloudy | SCT100 SCT120 | 12.2 | -3.7 | 33% | 75.69 | 0.0 | |||||||
| 08 | 07:33 | SW 15 | 16.09 | Mostly Cloudy | BKN100 BKN120 | 10.2 | -3.7 | 38% | 75.69 | 0.0 | |||||||
| 08 | 07:13 | SW 11 | 16.09 | Mostly Cloudy | BKN090 BKN120 | 9.7 | -4.1 | 38% | 8 | 75.69 | 0.0 | ||||||
| 08 | 06:53 | SW 11 | 16.09 | Mostly Cloudy | BKN090 BKN120 | 9.3 | -4.2 | 9.6 | 4.8 | 39% | 8 | 75.69 | 0.0 | ||||
| 08 | 06:33 | SW 7 | 16.09 | Partly Cloudy | SCT110 | 7.3 | -3.7 | 46% | 6 | 75.69 | 0.0 | ||||||
| 08 | 06:13 | SW 13 | 16.09 | Mostly Cloudy | BKN110 | 6.7 | -5 | 43% | 4 | 75.69 | 0.0 | ||||||
| 08 | 05:53 | SW 15 | 16.09 | Partly Cloudy | SCT110 | 6.6 | -6.3 | 40% | 4 | 75.69 | 0.0 | ||||||
| 08 | 05:33 | SW 13 | 16.09 | Fair | CLR | 5.6 | -6.6 | 41% | 3 | 75.69 | 0.0 | ||||||
| 08 | 05:13 | S 11 | 16.09 | Fair | CLR | 6.4 | -6.6 | 39% | 4 | 75.69 | 0.0 | ||||||
| 08 | 04:53 | S 11 | 16.09 | Fair | CLR | 6.2 | -6.5 | 40% | 4 | 75.69 | 0.0 | ||||||
| 08 | 04:33 | S 13 | 16.09 | Fair | CLR | 6 | -6.2 | 42% | 4 | 75.69 | 0.0 | ||||||
| 08 | 04:13 | S 13 | 16.09 | Fair | CLR | 6.5 | -6.2 | 40% | 4 | 75.69 | 0.0 | ||||||
| 08 | 03:53 | S 13 | 16.09 | Fair | CLR | 7.2 | -6.3 | 38% | 5 | 75.72 | 0.0 | ||||||
| 08 | 03:33 | S 11 | 16.09 | Fair | CLR | 7.3 | -6.2 | 38% | 5 | 75.72 | 0.0 | ||||||
| 08 | 03:13 | S 11 | 16.09 | Fair | CLR | 7.1 | -6.1 | 39% | 5 | 75.72 | 0.0 | ||||||
| 08 | 02:53 | S 9 | 16.09 | Fair | CLR | 9.2 | -6.7 | 32% | 8 | 75.72 | 0.0 | ||||||
| 08 | 02:33 | S 11 | 16.09 | Fair | CLR | 9.6 | -6.7 | 31% | 8 | 75.74 | 0.0 | ||||||
| 08 | 02:13 | S 9 | 16.09 | Fair | CLR | 6.3 | -5 | 45% | 5 | 75.74 | 0.0 | ||||||
| 08 | 01:53 | S 6 | 16.09 | Fair | CLR | 7.1 | -5.6 | 40% | 75.74 | 0.0 | |||||||
| 08 | 01:33 | S 9 | 16.09 | Fair | CLR | 7.9 | -5.5 | 38% | 7 | 75.77 | 0.0 | ||||||
| 08 | 01:13 | S 7 | 16.09 | Fair | CLR | 8.4 | -5.4 | 37% | 8 | 75.77 | 0.0 | ||||||
| 08 | 00:53 | Calm | 16.09 | Fair | CLR | 8.1 | -5.4 | 16.6 | 6 | 38% | 75.77 | 0.0 | |||||
| 08 | 00:33 | Calm | 16.09 | Fair | CLR | 6.3 | -5.2 | 44% | 75.79 | 0.0 | |||||||
| 08 | 00:13 | Calm | 16.09 | Fair | CLR | 6.1 | -4.6 | 47% | 75.79 | 0.0 | |||||||
| 07 | 23:53 | Calm | 16.09 | Fair | CLR | 7.5 | -5.1 | 41% | 75.79 | 0.0 | |||||||
| 07 | 23:33 | Calm | 16.09 | Fair | CLR | 7.7 | -5.3 | 40% | 75.79 | 0.0 | |||||||
| 07 | 23:13 | Calm | 16.09 | Fair | CLR | 7.2 | -4.8 | 43% | 75.79 | 0.0 | |||||||
| 07 | 22:53 | Calm | 16.09 | Fair | CLR | 7.8 | -5.2 | 40% | 75.79 | 0.0 | |||||||
| 07 | 22:33 | N 6 | 16.09 | Fair | CLR | 7.5 | -5 | 41% | 75.79 | 0.0 | |||||||
| 07 | 22:13 | Calm | 16.09 | Fair | CLR | 8.9 | -4.8 | 38% | 75.79 | 0.0 | |||||||
| 07 | 21:53 | Calm | 16.09 | Fair | CLR | 10 | -5.3 | 34% | 75.79 | 0.0 | |||||||
| 07 | 21:33 | Calm | 16.09 | Fair | CLR | 10.4 | -5.6 | 32% | 75.79 | 0.0 | |||||||
| 07 | 21:13 | W 6 | 16.09 | Fair | CLR | 12 | -5.9 | 28% | 75.77 | 0.0 | |||||||
| 07 | 20:53 | NW 6 | 16.09 | Fair | CLR | 11.9 | -5.5 | 29% | 75.77 | 0.0 | |||||||
| 07 | 20:33 | NW 9 | 16.09 | Fair | CLR | 12.3 | -5.2 | 29% | 75.74 | 0.0 | |||||||
| 07 | 20:13 | NW 9 | 16.09 | Fair | CLR | 13.5 | -5.4 | 27% | 75.74 | 0.0 | |||||||
| 07 | 19:53 | NW 15 | 16.09 | Fair | CLR | 15.4 | -6.2 | 22% | 75.72 | 0.0 | |||||||
| 07 | 19:33 | W 19 G 26 | 16.09 | Fair | CLR | 16.1 | -6.9 | 20% | 75.72 | 0.0 | |||||||
| 07 | 19:13 | W 22 | 16.09 | Fair | CLR | 16.6 | -7.1 | 19% | 75.69 | 0.0 | |||||||
| 07 | 18:53 | NW 13 | 16.09 | Fair | CLR | 16.6 | -5.7 | 17.5 | 13.8 | 21% | 75.72 | 0.0 | |||||
| 07 | 18:33 | W 11 G 30 | 16.09 | Fair | CLR | 16.9 | -7.1 | 19% | 75.72 | 0.0 | |||||||
| 07 | 18:13 | W 19 | 16.09 | Fair | CLR | 17.2 | -6.2 | 20% | 75.72 | 0.0 | |||||||
| 07 | 17:53 | NW 11 | 16.09 | Fair | CLR | 16.7 | -7.1 | 19% | 75.72 | 0.0 | |||||||
| 07 | 17:33 | W 11 G 30 | 16.09 | Fair | CLR | 17.1 | -8.2 | 17% | 75.74 | 0.0 | |||||||
| 07 | 17:13 | NW 20 G 44 | 16.09 | Fair | CLR | 17 | -8.1 | 17% | 75.72 | 0.0 | |||||||
| 07 | 16:53 | NW 13 G 26 | 16.09 | Fair | CLR | 17.3 | -6.6 | 19% | 75.74 | 0.0 | |||||||
| 07 | 16:33 | NW 9 | 16.09 | Fair | CLR | 16.8 | -7.4 | 18% | 75.74 | 0.0 | |||||||
| 07 | 16:13 | W 22 G 30 | 16.09 | Fair | CLR | 16.7 | -6.7 | 20% | 75.77 | 0.0 | |||||||
| 07 | 15:53 | W 19 G 31 | 16.09 | Fair | CLR | 16.7 | -6.8 | 19% | 75.77 | 0.0 | |||||||
| 07 | 15:33 | NW 19 G 33 | 16.09 | Fair | CLR | 16.5 | -6.1 | 21% | 75.79 | 0.0 | |||||||
| 07 | 15:13 | NW 9 G 15 | 16.09 | Fair | CLR | 15.6 | -6.4 | 22% | 75.79 | 0.0 | |||||||
| 07 | 14:53 | W 20 | 16.09 | Fair | CLR | 16.1 | -6.2 | 21% | 75.82 | 0.0 | |||||||
| 07 | 14:33 | N 7 | 16.09 | Fair | CLR | 15.6 | -6.5 | 21% | 75.82 | 0.0 | |||||||
| 07 | 14:13 | W 26 G 33 | 16.09 | Fair | CLR | 15.5 | -5.6 | 23% | 75.82 | 0.0 | |||||||
| 07 | 13:53 | W 7 G 33 | 16.09 | Fair | CLR | 15 | -6 | 23% | 75.82 | 0.0 | |||||||
| 07 | 13:33 | NW 19 | 16.09 | Fair | CLR | 14.2 | -5.5 | 25% | 75.84 | 0.0 | |||||||
| 07 | 13:13 | N 9 G 30 | 16.09 | Fair | CLR | 14 | -5.9 | 25% | 75.84 | 0.0 | |||||||
| 07 | 12:53 | NE 13 | 16.09 | Fair | CLR | 13.6 | -5.9 | 13.6 | 2.6 | 26% | 75.87 | 0.0 | |||||
| 07 | 12:33 | N 17 | 16.09 | Fair | CLR | 13.3 | -5.5 | 27% | 75.87 | 0.0 | |||||||
| 07 | 11:53 | NE 15 | 16.09 | Fair | CLR | 13 | -4.5 | 30% | 75.9 | 0.0 | |||||||
| 07 | 11:33 | N 15 | 16.09 | Fair | CLR | 12.2 | -5.5 | 29% | 75.9 | 0.0 | |||||||
| 07 | 11:13 | NE 6 | 16.09 | Fair | CLR | 11.9 | -6 | 28% | 75.92 | 0.0 | |||||||
| 07 | 10:53 | NE 9 | 16.09 | Fair | CLR | 11.9 | -5.6 | 29% | 75.92 | 0.0 | |||||||
| 07 | 10:33 | NE 11 | 16.09 | Fair | CLR | 11.4 | -4.8 | 32% | 75.92 | 0.0 | |||||||
| 07 | 10:13 | Calm | 16.09 | Fair | CLR | 11.1 | -3.3 | 37% | 75.92 | 0.0 | |||||||
| 07 | 09:53 | E 7 | 16.09 | Fair | CLR | 10.7 | -3.1 | 38% | 75.92 | 0.0 | |||||||
| 07 | 09:33 | SE 11 | 16.09 | Fair | CLR | 10.1 | -3 | 40% | 75.9 | 0.0 | |||||||
| 07 | 09:13 | E 9 | 16.09 | Fair | CLR | 9.1 | -3.2 | 42% | 8 | 75.92 | 0.0 | ||||||
| 07 | 08:53 | SE 13 | 16.09 | Fair | CLR | 8.3 | -3 | 45% | 6 | 75.92 | 0.0 | ||||||
| 07 | 08:33 | E 11 | 16.09 | Fair | CLR | 7.5 | -3.6 | 46% | 6 | 75.92 | 0.0 | ||||||
| 07 | 08:13 | E 11 | 16.09 | Fair | CLR | 6.6 | -3.7 | 48% | 5 | 75.92 | 0.0 | ||||||
| 07 | 07:53 | E 11 | 16.09 | Fair | CLR | 5.3 | -4.1 | 51% | 3 | 75.92 | 0.0 | ||||||
| 07 | 07:33 | E 11 | 16.09 | Fair | CLR | 4.7 | -3.9 | 54% | 2 | 75.92 | 0.0 | ||||||
| 07 | 07:13 | NE 7 | 16.09 | Fair | CLR | 3.3 | -4.1 | 59% | 2 | 75.92 | 0.0 | ||||||
| 07 | 06:53 | Calm | 16.09 | Partly Cloudy | SCT110 | 2.3 | -4.1 | 5 | 2.2 | 63% | 75.92 | 0.0 | |||||
| 07 | 06:33 | NE 9 | 16.09 | Partly Cloudy | SCT110 | 2.7 | -4.6 | 59% | 0 | 75.92 | 0.0 | ||||||
| 07 | 06:13 | E 11 | 16.09 | Partly Cloudy | SCT110 | 2.3 | -4.7 | 60% | -0 | 75.92 | 0.0 | ||||||
| 07 | 05:53 | NE 11 | 16.09 | Fair | CLR | 2.8 | -4.7 | 58% | 0 | 75.92 | 0.0 | ||||||
| 07 | 05:33 | E 13 | 16.09 | Fair | CLR | 3 | -4.7 | 57% | 0 | 75.92 | 0.0 | ||||||
| 07 | 05:13 | E 11 | 16.09 | Partly Cloudy | SCT070 SCT095 | 2.9 | -4.5 | 59% | 0 | 75.97 | 0.0 | ||||||
| 07 | 04:53 | NE 11 | 16.09 | Partly Cloudy | SCT042 SCT060 SCT075 | 3.8 | -4.7 | 54% | 1 | 75.97 | 0.0 | ||||||
| 07 | 04:33 | NE 7 | 16.09 | Mostly Cloudy | SCT042 SCT060 BKN070 | 3.4 | -4 | 59% | 2 | 76 | 0.0 | ||||||
| 07 | 04:13 | N 11 | 16.09 | Mostly Cloudy | SCT070 BKN090 BKN120 | 3.5 | -4.5 | 56% | 1 | 76 | 0.0 | ||||||
| 07 | 03:53 | E 13 | 16.09 | Mostly Cloudy | BKN090 BKN110 | 3.8 | -4.6 | 55% | 1 | 75.97 | 0.0 | ||||||
| 07 | 03:33 | E 13 | 16.09 | Fair | CLR | 3.2 | -4.7 | 57% | 0 | 75.97 | 0.0 | ||||||
| 07 | 03:13 | NE 15 | 16.09 | Fair | CLR | 3 | -4.5 | 58% | -0 | 75.97 | 0.0 | ||||||
| 07 | 02:53 | NE 13 | 16.09 | Partly Cloudy | SCT080 SCT090 SCT110 | 3.4 | -4.1 | 58% | 0 | 75.97 | 0.0 | ||||||
| 07 | 02:33 | NE 11 | 16.09 | Mostly Cloudy | SCT070 BKN090 BKN110 | 3.5 | -4.5 | 56% | 1 | 76 | 0.0 | ||||||
| 07 | 02:13 | E 11 | 16.09 | Partly Cloudy | SCT100 | 4.2 | -4.5 | 54% | 2 | 76 | 0.0 | ||||||
| 07 | 01:53 | E 13 | 16.09 | Mostly Cloudy | SCT090 BKN110 | 4 | -4.5 | 54% | 1 | 76 | 0.0 | ||||||
| 07 | 01:33 | E 11 | 16.09 | Mostly Cloudy | SCT070 BKN090 BKN120 | 4.5 | -4.4 | 53% | 2 | 76.05 | 0.0 | ||||||
| 07 | 01:13 | E 9 | 16.09 | Mostly Cloudy | SCT085 BKN120 | 4.5 | -4.5 | 52% | 3 | 76.05 | 0.0 | ||||||
| Date | Time (cdt) | Wind (kph) | Vis. (km) | Weather | Sky Cond. | Air | Dwpt | Max. | Min. | Relative Humidity | Wind Chill (°C) | Heat Index (°C) | altimeter (cm) | sea level (mb) | 1 hr | 3 hr | 6 hr |
| 6 hour | |||||||||||||||||
| Temperature (ºC) | Pressure | Precipitation (cm) | |||||||||||||||